sat.trackr.live / text

‹ back to catalog

STARLINK-5151

NORAD 54066 · 2022-136R

PAYLOAD ACTIVE UNKNOWN

§ Identity

Operator
Country
US
Launch date
2022-10-20
Launch site
AFETR
Launch vehicle
Mass (kg)
RCS (m²)

Purposes: comms

External: N2YO · Heavens-Above · Gunter

§ Orbital elements

Epoch: 2026-09-20T22:00:03.000096Z

Period
94.55 min
Inclination
53.1590°
Eccentricity
0.0002298
Mean motion
15.23065546 rev/d
Perigee alt
495.0 km
Apogee alt
498.2 km
Semi-major
6,874.7 km
B*
3.1603e-4
RAAN
186.7374°
Arg perigee
80.1996°
Mean anomaly
315.5810°
Rev number
569

§ Raw data

STARLINK-51511 54066U 22136R   26263.91670139  .00007216  00000+0  31603-3 0  99912 54066  53.1590 186.7374 0002298  80.1996 315.5810 15.23065546  5696

JSON: /api/v1/satellites/54066 · /tle

For live sub-satellite position, see the globe view (requires WebGL).

§ Visibility from observer

Set your observer location to see the next 7 days of passes ≥ 10°. The values pass through the URL so the page stays shareable.

No JS? Fill the form by hand. The geolocation button needs JavaScript.